FW4655 Weather Reports


Display with metric or nautical units.
time (UTC)temp
F
wind
direction
speed
MPH
gust
MPH
rain 1hr
in
rain 24hr
in
rain mn
in
humidity
%
barometer
mb
20260506111522 57 91 3.0 5.0 0.00 0.00 0.00 79 1019.9
20260506111010 57 51 2.0 4.0 0.00 0.00 0.00 79 1019.8
20260506110515 57 86 0.0 3.0 0.00 0.00 0.00 79 1019.7
20260506110007 57 91 0.0 4.0 0.00 0.00 0.00 79 1019.6
20260506105504 57 58 1.0 5.0 0.00 0.00 0.00 79 1019.6
20260506105007 57 86 2.0 5.0 0.00 0.00 0.00 79 1019.5
20260506104513 57 96 1.0 2.0 0.00 0.00 0.00 79 1019.4
20260506104007 57 112 1.0 3.0 0.00 0.00 0.00 79 1019.3
20260506103507 57 44 1.0 3.0 0.00 0.00 0.00 79 1019.2
20260506103017 57 55 0.0 3.0 0.00 0.00 0.00 79 1019.2
20260506102507 57 81 0.0 3.0 0.00 0.00 0.00 79 1019.1
20260506102008 57 45 0.0 3.0 0.00 0.00 0.00 79 1019.0
20260506101535 57 92 0.0 3.0 0.00 0.00 0.00 78 1018.9
20260506101015 57 100 2.0 3.0 0.00 0.00 0.00 78 1018.9
20260506100511 57 73 0.0 3.0 0.00 0.00 0.00 78 1018.9
20260506100023 57 94 1.0 4.0 0.00 0.00 0.00 78 1018.9
20260506095508 57 76 1.0 4.0 0.00 0.00 0.00 78 1018.9
20260506095011 58 44 1.0 3.0 0.00 0.00 0.00 78 1018.9
20260506094526 58 56 0.0 2.0 0.00 0.00 0.00 78 1018.9
20260506094007 58 36 0.0 2.0 0.00 0.00 0.00 78 1018.8
20260506093512 58 44 0.0 4.0 0.00 0.00 0.00 78 1018.8
20260506093014 58 101 2.0 4.0 0.00 0.00 0.00 78 1018.7
20260506092508 58 71 0.0 0.0 0.00 0.00 0.00 78 1018.8
20260506092010 58 84 0.0 0.0 0.00 0.00 0.00 78 1018.8
20260506091521 58 91 0.0 0.0 0.00 0.00 0.00 78 1018.7
20260506091010 58 89 0.0 0.0 0.00 0.00 0.00 77 1018.7
20260506090510 58 82 0.0 0.0 0.00 0.00 0.00 78 1018.6
20260506090021 58 94 0.0 1.0 0.00 0.00 0.00 77 1018.6
20260506085509 58 75 0.0 5.0 0.00 0.00 0.00 77 1018.6
20260506085011 58 98 0.0 5.0 0.00 0.00 0.00 77 1018.6
20260506084528 59 126 1.0 5.0 0.00 0.00 0.00 77 1018.6
20260506084009 59 84 3.0 5.0 0.00 0.00 0.00 77 1018.6
20260506083511 59 99 1.0 4.0 0.00 0.00 0.00 77 1018.6
20260506083024 59 77 1.0 3.0 0.00 0.00 0.00 77 1018.7
20260506082509 59 96 1.0 4.0 0.00 0.00 0.00 77 1018.7
20260506082006 59 91 1.0 4.0 0.00 0.00 0.00 77 1018.7
20260506081516 59 72 0.0 0.0 0.00 0.00 0.00 77 1018.7
20260506081009 59 81 0.0 0.0 0.00 0.00 0.00 77 1018.6
20260506080511 59 82 0.0 3.0 0.00 0.00 0.00 77 1018.5
20260506073510 59 79 0.0 2.0 0.00 0.00 0.00 80 1018.2
20260506073025 59 105 0.0 1.0 0.00 0.00 0.00 81 1018.2
20260506072517 59 105 0.0 1.0 0.00 0.00 0.00 81 1018.2
20260506072015 59 104 0.0 0.0 0.00 0.00 0.00 81 1018.2
20260506071527 59 105 0.0 0.0 0.00 0.00 0.00 81 1018.2
20260506071010 59 104 0.0 1.0 0.00 0.00 0.00 81 1018.2
20260506070509 59 104 0.0 1.0 0.00 0.00 0.00 81 1018.1
20260506062516 58 105 0.0 1.0 0.00 0.00 0.00 81 1017.9
20260506062010 58 108 0.0 0.0 0.00 0.00 0.00 82 1017.8
20260506061528 58 108 0.0 0.0 0.00 0.00 0.00 82 1017.8
20260506061016 58 108 0.0 0.0 0.00 0.00 0.00 81 1017.8
20260506060508 58 108 0.0 1.0 0.00 0.00 0.00 81 1017.8
20260506051004 57 244 0.0 0.0 0.00 0.00 0.00 83 1017.5
20260506050506 57 244 0.0 0.0 0.00 0.00 0.00 83 1017.5
20260506045005 56 244 0.0 0.0 0.00 0.00 0.00 83 1017.6
20260506044520 56 244 0.0 0.0 0.00 0.00 0.00 83 1017.6
20260506044013 57 244 0.0 0.0 0.00 0.00 0.00 82 1017.6
20260506043507 57 244 0.0 0.0 0.00 0.00 0.00 82 1017.4
20260506043020 57 244 0.0 0.0 0.00 0.00 0.00 82 1017.4
20260506042507 57 244 0.0 0.0 0.00 0.00 0.00 80 1017.3
20260506042017 57 244 0.0 0.0 0.00 0.00 0.00 79 1017.3
20260506041530 58 244 0.0 0.0 0.00 0.00 0.00 78 1017.2
20260506041009 58 244 0.0 0.0 0.00 0.00 0.00 78 1017.1
20260506040520 59 244 0.0 0.0 0.00 0.00 0.00 77 1017.1
20260506040009 59 244 0.0 0.0 0.00 0.00 0.00 77 1017.0
20260506035504 60 244 0.0 0.0 0.00 0.00 0.00 76 1016.8
20260506035004 60 244 0.0 0.0 0.00 0.00 0.00 75 1016.8
20260506034512 61 244 0.0 0.0 0.00 0.00 0.00 73 1016.7
20260506034007 61 244 0.0 0.0 0.00 0.00 0.00 72 1016.7
20260506033506 62 244 0.0 0.0 0.00 0.00 0.00 71 1016.6
20260506033021 62 244 0.0 0.0 0.00 0.00 0.00 70 1016.6
20260506032508 62 244 0.0 0.0 0.00 0.00 0.00 69 1016.5
20260506032010 63 244 0.0 0.0 0.00 0.00 0.00 69 1016.5
20260506031524 63 244 0.0 0.0 0.00 0.00 0.00 68 1016.5
20260506031009 63 244 0.0 0.0 0.00 0.00 0.00 68 1016.4
20260506030513 63 244 0.0 0.0 0.00 0.00 0.00 67 1016.4
20260506030026 64 243 0.0 1.0 0.00 0.00 0.00 68 1016.4
20260506025514 64 243 0.0 2.0 0.00 0.00 0.00 68 1016.4
20260506025009 64 217 0.0 2.0 0.00 0.00 0.00 68 1016.3
20260506024526 64 226 1.0 2.0 0.00 0.00 0.00 68 1016.2
20260506024005 64 214 0.0 2.0 0.00 0.00 0.00 68 1016.2
20260506023506 64 160 0.0 0.0 0.00 0.00 0.00 67 1016.3
20260506023014 64 233 0.0 0.0 0.00 0.00 0.00 67 1016.3
20260506022508 64 46 0.0 0.0 0.00 0.00 0.00 65 1016.2
20260506022007 64 46 0.0 0.0 0.00 0.00 0.00 66 1016.4
20260506021518 65 210 0.0 0.0 0.00 0.00 0.00 65 1016.3
20260506021011 65 211 0.0 0.0 0.00 0.00 0.00 65 1016.3
20260506020513 65 285 0.0 0.0 0.00 0.00 0.00 65 1016.3
20260506020024 65 295 0.0 0.0 0.00 0.00 0.00 64 1016.3
20260506015508 66 218 0.0 0.0 0.00 0.00 0.00 63 1016.3
20260506015010 66 275 0.0 0.0 0.00 0.00 0.00 63 1016.3
20260506014537 65 274 0.0 1.0 0.00 0.00 0.00 65 1016.3
20260506014011 65 302 0.0 3.0 0.00 0.00 0.00 64 1016.4
20260506013512 65 39 0.0 4.0 0.00 0.00 0.00 64 1016.4
20260506013030 66 339 2.0 4.0 0.00 0.00 0.00 64 1016.3
20260506012509 66 299 0.0 2.0 0.00 0.00 0.00 64 1016.4
20260506012008 65 1 0.0 3.0 0.00 0.00 0.00 66 1016.3
20260506011514 64 79 1.0 3.0 0.00 0.00 0.00 66 1016.3
20260506011006 64 59 1.0 3.0 0.00 0.00 0.00 66 1016.4
20260506010508 64 70 0.0 2.0 0.00 0.00 0.00 66 1016.3
20260506010025 64 93 0.0 2.0 0.00 0.00 0.00 67 1016.3
20260506005509 64 59 1.0 3.0 0.00 0.00 0.00 67 1016.3
20260506005015 64 87 1.0 3.0 0.00 0.00 0.00 67 1016.4
20260506004535 64 106 0.0 4.0 0.00 0.00 0.00 66 1016.5
20260506004013 64 94 1.0 4.0 0.00 0.00 0.00 67 1016.4
20260506003513 64 51 2.0 4.0 0.00 0.00 0.00 67 1016.5
20260506003024 64 320 0.0 2.0 0.00 0.00 0.00 68 1016.4
20260506002512 64 351 0.0 2.0 0.00 0.00 0.00 68 1016.4
20260506002013 63 326 0.0 3.0 0.00 0.00 0.00 67 1016.5
20260506001528 63 342 2.0 3.0 0.00 0.00 0.00 67 1016.6
20260506001010 64 38 1.0 3.0 0.00 0.00 0.00 67 1016.5
20260506000510 63 93 0.0 3.0 0.00 0.00 0.00 67 1016.6
20260506000019 63 96 2.0 4.0 0.00 0.00 0.00 67 1016.6
20260505235514 63 51 2.0 4.0 0.00 0.00 0.00 67 1016.7
20260505235010 63 328 0.0 4.0 0.00 0.00 0.00 67 1016.7
20260505234520 64 297 2.0 4.0 0.00 0.00 0.00 68 1016.8
20260505234010 63 353 0.0 3.0 0.00 0.00 0.00 68 1016.8
20260505233516 63 60 1.0 4.0 0.00 0.00 0.00 69 1016.7
20260505233026 63 281 2.0 4.0 0.00 0.00 0.00 69 1016.7
20260505232512 63 14 2.0 9.0 0.00 0.00 0.00 68 1016.8
20260505232010 63 41 4.0 9.0 0.00 0.00 0.00 67 1016.8
20260505231527 64 336 2.0 4.0 0.00 0.00 0.00 67 1016.8
20260505231010 64 49 1.0 4.0 0.00 0.00 0.00 67 1016.8
20260505230514 63 11 2.0 4.0 0.00 0.00 0.00 68 1016.8
20260505230033 64 49 2.0 4.0 0.00 0.00 0.00 67 1016.8
20260505225513 64 353 1.0 4.0 0.00 0.00 0.00 68 1016.9
20260505225007 63 338 0.0 3.0 0.00 0.00 0.00 68 1016.9
20260505224537 63 294 1.0 5.0 0.00 0.00 0.00 67 1016.9
20260505224012 63 314 2.0 5.0 0.00 0.00 0.00 68 1017.0
20260505223512 63 318 2.0 4.0 0.00 0.00 0.00 68 1017.0
20260505223028 63 93 0.0 4.0 0.00 0.00 0.00 68 1017.0
20260505222510 63 342 0.0 4.0 0.00 0.00 0.00 68 1017.1
20260505222009 63 281 1.0 4.0 0.00 0.00 0.00 68 1017.1
20260505221527 63 317 1.0 5.0 0.00 0.00 0.00 68 1017.1
20260505221012 63 56 2.0 5.0 0.00 0.00 0.00 68 1017.2
20260505220510 64 62 1.0 4.0 0.00 0.00 0.00 68 1017.2
20260505220036 63 95 1.0 2.0 0.00 0.00 0.00 68 1017.3
20260505215512 63 31 1.0 6.0 0.00 0.00 0.00 70 1017.2
20260505215010 62 108 0.0 6.0 0.00 0.00 0.00 70 1017.3
20260505214547 62 69 1.0 4.0 0.00 0.00 0.00 70 1017.3
20260505214010 62 78 1.0 4.0 0.00 0.00 0.00 70 1017.4
20260505213510 62 84 2.0 4.0 0.00 0.00 0.00 69 1017.3
20260505213048 62 17 1.0 4.0 0.00 0.00 0.00 69 1017.3
20260505212510 62 79 0.0 4.0 0.00 0.00 0.00 69 1017.3
20260505212012 62 71 2.0 4.0 0.00 0.00 0.00 69 1017.5
20260505211525 62 330 2.0 3.0 0.00 0.00 0.00 68 1017.5
20260505211010 62 341 1.0 3.0 0.00 0.00 0.00 68 1017.5
20260505210508 62 41 1.0 3.0 0.00 0.00 0.00 68 1017.4
20260505210029 62 16 0.0 2.0 0.00 0.00 0.00 68 1017.5
20260505205511 62 328 1.0 2.0 0.00 0.00 0.00 69 1017.5
20260505205009 62 322 1.0 3.0 0.00 0.00 0.00 69 1017.6
20260505204516 62 292 1.0 4.0 0.00 0.00 0.00 69 1017.5
20260505204007 62 13 2.0 4.0 0.00 0.00 0.00 69 1017.5
20260505203507 63 15 0.0 2.0 0.00 0.00 0.00 68 1017.6
20260505203009 62 340 0.0 3.0 0.00 0.00 0.00 69 1017.6
20260505202503 62 329 2.0 5.0 0.00 0.00 0.00 69 1017.6
20260505202004 62 58 2.0 5.0 0.00 0.00 0.00 68 1017.4
20260505201503 63 55 0.0 3.0 0.00 0.00 0.00 68 1017.4
20260505201004 63 68 2.0 4.0 0.00 0.00 0.00 68 1017.5
20260505200506 62 8 0.0 4.0 0.00 0.00 0.00 69 1017.5
20260505200008 63 353 1.0 4.0 0.00 0.00 0.00 68 1017.5
20260505195505 63 35 1.0 4.0 0.00 0.00 0.00 68 1017.5
20260505195004 63 296 1.0 3.0 0.00 0.00 0.00 68 1017.5
20260505194510 63 285 1.0 6.0 0.00 0.00 0.00 67 1017.5
20260505194010 63 231 0.0 6.0 0.00 0.00 0.00 69 1017.6
20260505193503 63 194 2.0 4.0 0.00 0.00 0.00 68 1017.6
20260505193034 62 134 1.0 4.0 0.00 0.00 0.00 70 1017.6
20260505192508 62 200 2.0 4.0 0.00 0.00 0.00 69 1017.6
20260505192006 62 340 2.0 3.0 0.00 0.00 0.00 69 1017.7
20260505191514 62 289 1.0 3.0 0.00 0.00 0.00 69 1017.6
20260505191004 62 323 0.0 2.0 0.00 0.00 0.00 70 1017.7
20260505190504 61 87 1.0 2.0 0.00 0.00 0.00 72 1017.6
20260505190025 60 288 0.0 4.0 0.00 0.00 0.00 73 1017.7
20260505185510 60 96 2.0 4.0 0.00 0.00 0.00 73 1017.6
20260505185005 60 96 2.0 3.0 0.00 0.00 0.00 73 1017.6
20260505184507 59 66 1.0 3.0 0.00 0.00 0.00 74 1017.7
20260505184007 59 89 1.0 2.0 0.00 0.00 0.00 74 1017.8
20260505183507 59 311 0.0 2.0 0.00 0.00 0.00 74 1017.8
20260505183015 59 327 0.0 2.0 0.00 0.00 0.00 74 1017.9
20260505182506 59 259 1.0 2.0 0.00 0.00 0.00 75 1017.8
20260505182007 59 306 1.0 5.0 0.00 0.00 0.00 76 1017.8
20260505181517 58 214 1.0 5.0 0.00 0.00 0.00 77 1017.7
20260505181011 58 301 2.0 5.0 0.00 0.00 0.00 76 1017.7
20260505180507 58 346 1.0 3.0 0.00 0.00 0.00 76 1017.7
20260505180030 58 318 1.0 4.0 0.00 0.00 0.00 76 1017.8
20260505175510 58 290 2.0 4.0 0.00 0.00 0.00 76 1017.7
20260505175005 58 349 0.0 4.0 0.00 0.00 0.00 77 1017.7
20260505174524 57 297 2.0 4.0 0.00 0.00 0.00 77 1017.7
20260505174007 58 300 3.0 4.0 0.00 0.00 0.00 76 1017.7
20260505173508 58 276 0.0 4.0 0.00 0.00 0.00 76 1017.7
20260505173008 58 309 2.0 4.0 0.00 0.00 0.00 76 1017.6
20260505172506 58 256 1.0 4.0 0.00 0.00 0.00 76 1017.6
20260505172011 58 320 1.0 5.0 0.00 0.00 0.00 76 1017.6
20260505171525 58 293 0.0 5.0 0.00 0.00 0.00 77 1017.5
20260505171005 58 301 0.0 3.0 0.00 0.00 0.00 76 1017.5
20260505170509 58 291 0.0 4.0 0.00 0.00 0.00 77 1017.4
20260505170018 57 304 0.0 4.0 0.00 0.00 0.00 78 1017.4
20260505165509 57 327 1.0 6.0 0.00 0.00 0.00 77 1017.4
20260505165007 57 293 2.0 6.0 0.00 0.00 0.00 76 1017.3
20260505164532 58 299 0.0 4.0 0.00 0.00 0.00 77 1017.4
20260505164008 57 222 0.0 3.0 0.00 0.00 0.00 77 1017.3
20260505163508 57 330 1.0 4.0 0.00 0.00 0.00 77 1017.3
20260505163023 57 265 1.0 4.0 0.00 0.00 0.00 77 1017.3
20260505162508 57 358 1.0 3.0 0.00 0.00 0.00 77 1017.3
20260505162007 57 293 0.0 4.0 0.00 0.00 0.00 78 1017.3
20260505161521 57 326 1.0 6.0 0.00 0.00 0.00 78 1017.2
20260505161006 57 269 0.0 6.0 0.00 0.00 0.00 79 1017.2
20260505160508 57 288 3.0 6.0 0.00 0.00 0.00 77 1017.2
20260505153027 55 305 2.0 5.0 0.00 0.00 0.00 80 1017.1
20260505152512 56 285 1.0 7.0 0.00 0.00 0.00 81 1017.1
20260505152018 55 295 2.0 7.0 0.00 0.00 0.00 81 1017.1
20260505151520 55 301 3.0 6.0 0.00 0.00 0.00 81 1017.2
20260505151013 55 316 2.0 5.0 0.00 0.00 0.00 80 1017.1
20260505150517 55 224 2.0 4.0 0.00 0.00 0.00 81 1017.0
20260505140519 55 307 0.0 2.0 0.00 0.00 0.00 81 1016.4
20260505125007 55 285 0.0 2.0 0.00 0.00 0.00 81 1016.0
20260505124528 55 284 0.0 2.0 0.00 0.00 0.00 81 1016.1
20260505124011 55 213 0.0 1.0 0.00 0.00 0.00 81 1016.0
20260505123511 54 301 0.0 1.0 0.00 0.00 0.00 81 1016.1
20260505123044 55 346 0.0 1.0 0.00 0.00 0.00 81 1016.1
20260505122508 55 327 0.0 3.0 0.00 0.00 0.00 81 1016.1
20260505122009 54 305 1.0 3.0 0.00 0.00 0.00 81 1016.1
20260505121532 55 304 2.0 3.0 0.00 0.00 0.00 81 1016.0
20260505121007 55 283 0.0 2.0 0.00 0.00 0.00 81 1016.0
20260505120510 54 275 0.0 5.0 0.00 0.00 0.00 81 1016.0
20260505120033 55 275 1.0 5.0 0.00 0.00 0.00 81 1016.0
20260505115512 54 314 1.0 2.0 0.00 0.00 0.00 81 1016.0
20260505115003 55 297 0.0 3.0 0.00 0.00 0.00 81 1016.0
20260505114503 55 281 1.0 3.0 0.00 0.00 0.00 81 1016.0
20260505114003 55 288 0.0 2.0 0.00 0.00 0.00 81 1016.0
20260505113506 55 289 0.0 2.0 0.00 0.00 0.00 81 1016.0
20260505113009 54 339 0.0 2.0 0.00 0.00 0.00 81 1016.0
20260505112507 54 304 1.0 4.0 0.00 0.00 0.00 81 1016.0
20260505112007 54 290 0.0 4.0 0.00 0.00 0.00 82 1016.0